www.pogodaiklimat.ru

Погода и климат >> Архив погоды >> Беларусь >> Минск


АРХИВ ПОГОДЫ в Минске

Время (UTC), дата Ветер
(напр.,м/с)
 
Видим.   Явления Облачность Т
(С)
Тd
(С)
f
(%)
Тe
(С)
Тes
(С)
Комфортность P
(гПа)
Po
(гПа)
Тmin
(С)
Tmax
(С)
R
(мм)
R24
(мм)
S
(см)
03 14.09 СЗ 2 13 км 3/0
[Ac trans]
+9.5 +8.4 93 +8 +8 по сезону 1022.8 994.8
06 14.09 СЗ 3 18 км 3/3 600 м
[Sc]
+11.0 +8.6 85 +9 +10 по сезону 1024.1 996.2 +9.1 1
09 14.09 З 3 14 км 6/4 720 м
[Cu med, cong Ac trans]
+15.8 +8.1 60 +15 +18 тепло 1024.0 996.6
12 14.09 З 4
{11}
15 км {ливн. осадки} 6/6 800 м
[Sc]
+17.6 +6.5 48 +17 +19 тепло 1023.1 995.9
15 14.09 СЗ 4
{10}
13 км 6/3 800 м
[Sc Ac trans]
+15.6 +4.6 48 +15 +15 тепло 1023.2 995.8
18 14.09 З 2 15 км 8/0
[Ac trans]
+12.8 +7.0 68 +12 +12 по сезону 1024.1 996.4 +18.1 0.6
21 14.09 З 2 12 км 8/0
[As trans]
+10.9 +6.3 73 +10 +10 по сезону 1024.4 996.5
00 15.09 З 1 15 км 6/0
[Ci fib]
+8.7 +6.0 83 +8 +8 по сезону 1024.2 996.1
03 15.09 З 1 15 км 6/0
[Ci fib]
+7.5 +5.8 89 +7 +7 по сезону 1023.3 995.1
06 15.09 ЮЗ 3 15 км 8/6 540 м
[Sc Ac trans]
+10.1 +7.3 83 +8 +8 по сезону 1021.3 993.4 +6.8
09 15.09 ЮЗ 3
{10}
17 км 8/6 930 м
[Sc Ac trans]
+14.5 +5.6 55 +14 +15 тепло 1018.9 991.5
12 15.09 ЮЗ 5
{11}
15 км 9/6 1110 м
[Sc Ac trans]
+15.2 +4.6 49 +14 +15 по сезону 1015.6 988.3
15 15.09 ЮЗ 6-12
{13}
13 км 9/9 960 м
[Sc Ac trans]
+16.4 +5.4 48 +15 +15 тепло 1011.7 984.7
18 15.09 ЮЗ 5-10
{13}
14 км 10/8 1000 м
[Sc Ac trans]
+15.5 +4.8 49 +14 +14 тепло 1009.2 982.1 +16.5
21 15.09 З 5
{11}
14 км 10/8 750 м
[Sc Ac trans]
+15.5 +6.0 53 +14 +14 тепло 1006.7 979.7
00 16.09 З 4
{10}
12 км 8/0
[As trans]
+15.4 +7.4 59 +15 +15 тепло 1005.1 978.2
03 16.09 З 3
{11}
10 км в посл. час ливневой дождь 10/10 800 м
[Sc]
+12.4 +9.2 81 +11 +11 по сезону 1005.6 978.4
06 16.09 З 4
{12}
15 км {ливн. осадки} 8/8 1200 м
[Sc]
+12.8 +7.7 71 +11 +11 по сезону 1005.9 978.7 +11.4 0.3
09 16.09 З 5-10
{12}
15 км 9/9 900 м
[Sc]
+13.6 +6.9 64 +12 +12 по сезону 1006.3 979.2
12 16.09 З 5-10
{11}
20 км 8/8 960 м
[Sc]
+16.3 +5.9 50 +15 +16 по сезону 1005.7 978.8
15 16.09 З 3
{12}
20 км в посл. час ливневой дождь 8/6 1110 м
[Sc Ac trans]
+15.1 +6.7 57 +15 +15 тепло 1005.3 978.3
18 16.09 З 4
{10}
20 км {ливн. осадки} ясно +13.0 +5.7 61 +11 +11 по сезону 1005.6 978.4 +16.9 0.0
21 16.09 З 3
{11}
20 км 8/0
[Ac trans]
+11.6 +5.5 66 +10 +10 по сезону 1005.7 978.4
00 17.09 З 3 18 км 8/0
[Ac trans]
+10.0 +5.4 73 +8 +8 по сезону 1005.3 977.8
03 17.09 З 2 20 км ясно +8.7 +5.6 81 +7 +7 по сезону 1004.8 977.2
06 17.09 З 4 15 км 4/3 600 м
[Sc Ac trans]
+10.0 +5.6 74 +7 +8 по сезону 1004.9 977.5 +8.4
09 17.09 З 4 18 км 8/8 930 м
[Sc]
+12.8 +4.5 57 +11 +12 по сезону 1004.7 977.5
12 17.09 З 5
{11}
20 км {ливн. осадки} 4/3 1000 м
[Sc Ci fib]
+13.5 +3.6 51 +12 +14 прохладно 1003.8 976.7
15 17.09 З 2
{10}
14 км в посл. час ливневой дождь 8/4 600 м
[Cb calv Ci fib]
+11.4 +6.9 74 +10 +11 прохладно 1002.2 975.0
18 17.09 Ю 2
{11}
15 км в посл. час ливневой дождь 6/0
[Ac trans]
+9.0 +7.0 87 +7 +7 прохладно 1000.9 973.5 +15.1 1
21 17.09 ЮЗ 2 12 км слаб. ливневой дождь 10/8 750 м
[Cb calv Ac trans]
+9.0 +7.1 88 +7 +7 прохладно 998.9 971.5
00 18.09 З 2 10 км слаб. дождь 10/6 600 м
[Sc Ac trans]
+7.6 +6.1 90 +5 +5 прохладно 998.4 970.9
03 18.09 З 2 15 км {дождь} 10/10 480 м
[Sc]
+6.9 +5.5 91 +5 +5 прохладно 998.1 970.5
06 18.09 СЗ 2 13 км слаб. дождь 10/10 420 м
[Sc]
+6.8 +5.1 89 +4 +4 прохладно 999.4 971.8 +6.4 1
09 18.09 З 4 14 км слаб. дождь 10/10 540 м
[Sc]
+8.0 +5.5 84 +5 +5 холодно 1001.1 973.6
12 18.09 СЗ 3
{11}
8000 м слаб. дождь 10/10 360 м
[Sc]
+7.0 +5.9 93 +4 +4 очень
холодно
1003.6 975.9
15 18.09 СЗ 3
{10}
12 км {дождь} 10/10 500 м
[Sc]
+9.6 +6.3 80 +7 +7 холодно 1005.9 978.4
18 18.09 З 2 15 км 6/3 870 м
[Sc Ac trans]
+8.2 +5.3 82 +6 +6 прохладно 1008.6 980.9 +9.7 2
21 18.09 З 2 14 км 8/3 900 м
[Sc Ac trans]
+7.6 +6.1 90 +5 +5 прохладно 1010.1 982.3
00 19.09 З 2 10 км в посл. час ливневой дождь 10/10 660 м
[Sc]
+7.4 +6.7 95 +5 +5 прохладно 1011.3 983.4
03 19.09 З 2 15 км {ливн. осадки} 10/10 360 м
[Sc]
+7.9 +6.8 93 +6 +6 по сезону 1012.0 984.2
06 19.09 СЗ 2 10 км слаб. ливневой дождь 10/10 630 м
[Cb cap]
+7.9 +7.0 94 +6 +6 прохладно 1013.5 985.6 +7.2 2
09 19.09 С 2 20 км слаб. ливневой дождь 9/9 870 м
[Cb cap]
+8.7 +7.0 89 +7 +8 прохладно 1015.1 987.3
12 19.09 З 4 20 км {ливн. осадки} 8/6 1110 м
[Sc Ac trans]
+11.3 +3.6 59 +9 +10 холодно 1015.4 987.8
15 19.09 СЗ 2 15 км 8/6 1230 м
[Sc Ac trans]
+10.4 +5.6 72 +9 +9 прохладно 1015.9 988.2
18 19.09 З 1 15 км 6/0
[Ac trans]
+7.8 +5.1 83 +7 +7 прохладно 1017.0 989.0 +12.6 0.3
21 19.09 СЗ 1 10 км ясно +5.9 +4.7 92 +5 +5 прохладно 1017.1 988.9
00 20.09 З 2 10 км 8/0
[Ac trans]
+6.5 +5.3 92 +4 +4 прохладно 1016.6 988.5
03 20.09 З 2 10 км 8/6 1230 м
[Sc Ac trans]
+6.0 +4.8 92 +3 +3 прохладно 1016.0 987.9
06 20.09 З 3 10 км слаб. дождь 10/10 240 м
[Frnb Ns]
+6.3 +5.4 94 +3 +3 прохладно 1016.1 988.0 +4.7 0.0
09 20.09 З 4 10 км слаб. дождь 10/10 300 м
[Frnb Ns]
+7.1 +5.1 87 +4 +4 холодно 1016.9 988.8
12 20.09 С 4
{10}
12 км в посл. час дождь 8/6 420 м
[Sc Ac trans]
+8.0 +5.1 82 +5 +6 очень
холодно
1018.2 990.2
15 20.09 СЗ 1 13 км {дождь} 6/4 700 м
[Sc Ac trans]
+7.3 +4.6 83 +6 +7 холодно 1019.4 991.3
18 20.09 СЗ 1 12 км 3/3 800 м
[Sc]
+2.6 +2.0 96 +1 +1 очень
холодно
1021.4 992.7 +8.5 2

 

Местоположение метеостанции Минск (город Минск, Беларусь): широта 53.96 долгота 27.70 высота над уровнем моря 231 м.

В архиве по умолчанию представлена погода в Минске за последнюю неделю. Архивные данные за месяц целиком и за предыдущие месяцы, начиная с января 2011 года, Вы можете получить, выбрав интересующий диапазон дат из раскрывающегося списка и нажав кнопку "Ввод!".


*Определитесь, кто Вы:
робот инопланетянин человек

Внимание! Время в таблицах - всемирное. Для получения местного времени необходимо прибавить поправку, которая равна 3 ч.

Смотрите также архив погоды в соседних городах и на ближайших метеорологических станциях:

Погода в Борисове (Минская область, Беларусь) (63 км)
Погода в Марьиной Горке (Минская область, Беларусь) (63 км)
Погода в Вилейке (Минская область, Беларусь) (77 км)
Погода в Воложине (Минская область, Беларусь) (78 км)
Погода в Столбцах (Минская область, Беларусь) (83 км)
Погода в Березино (Минская область, Беларусь) (86 км)
Погода в Березинском Заповеднике (Минская область, Беларусь) (95 км)
Погода в Докшицах (Витебская область, Беларусь) (102 км)
Погода в Слуцке (Минская область, Беларусь) (104 км)
Погода в Кличеве (Могилевская область, Беларусь) (118 км)

Пояснения к столбцам:

Ветер - указаны скорость ветра в м/с - средняя за 10 мин, порывы в срок и между сроками (в фигурных скобках) и направление, откуда дует ветер: С - северный, СВ - северо-восточный, В - восточный, ЮВ - юго-восточный, Ю - южный, ЮЗ - юго-западный, З - западный, СЗ - северо-западный.
Видимость - горизонтальная дальность видимости в метрах или километрах. При видимости от 1 до 10 км при отсутствии осадков обычно наблюдается дымка, при ухудшении видимости до 1 км и менее - туман. В сухую погоду видимость может ухудшаться дымом, пылью или мглою.
Явления - указаны атмосферные явления, наблюдавшиеся в срок или в последний час перед сроком; фигурными скобками обозначены явления, наблюдавшиеся между сроками (за 1-3 часа до срока); квадратными скобками обозначены град или гололедные отложения с указанием их диаметра в мм.
Облачность - указаны через наклонную черту общая и нижняя облачность в баллах и высота нижней границы облаков в метрах; квадратными скобками обозначены формы облаков: Ci - перистые, Cs - перисто-слоистые, Cc - перисто-кучевые, Ac - высококучевые, As - высокослоистые, Sc - слоисто-кучевые, Ns - слоисто-дождевые, Cu - кучевые, Cb - кучево-дождевые. Подробнее классификацию облаков см. в Атласе облаков (PDF).
T - Температура воздуха - температура, измеренная на высоте 2 м над землей.
Td - Температура точки росы - температура, при понижении до которой содержащийся в воздухе водяной пар достигнет насыщения.
f - Относительная влажность воздуха - влажноcть воздуха, измеренная на высоте 2 м над землей.
Te - Эффективная температура - температура, которую ощущает одетый по сезону человек в тени. Характеристика душности погоды. При расчете учитывается влияние влажности воздуха и скорости ветра на теплоощущения человека.
Tes - Эффективная температура на солнце - температура, которую ощущает человек, с поправкой на солнечный нагрев. Характеристика знойности погоды. Зависит от высоты солнца над горизонтом, облачности и скорости ветра. Ночью, в пасмурную погоду, а также при ветре 12 м/с и более поправка равна нулю.
P - Атмосферное давление - приведенное к уровню моря атмосферное давление.
Po - Атмосферное давление - измеренное на уровне метеостанции атмосферное давление.
Tmin - Минимальная температура - минимум температуры воздуха на высоте 2 м над землей.
Tmax - Максимальная температура - максимум температуры воздуха на высоте 2 м над землей.
R - Количество осадков - Количество выпавших осадков за период времени, мм. При наведении курсора мыши на число - период времени, за который выпало указанное количество осадков.
R24 - Количество осадков - Количество выпавших осадков за 24 часа, мм.
S - Снежный покров - Высота снежного покрова, см. При наведении курсора мыши на число - состояние снежного покрова и степень покрытия местности в баллах.